Regional Weather Roundup
Issued by NWS Boston, MA

Current Version | Previous Version | Text Only | Print | Product List | Glossary Off
Versions: 1 2 3 4 5 6 7 8 9 10 11 12 13 14 15 16 17 18 19 20 21 22 23 24 25 26 27
000 ASUS41 KBOX 220610 RWRBOX REGIONAL WEATHER ROUNDUP NATIONAL WEATHER SERVICE TAUNTON MA 200 AM EDT FRI SEP 22 2017 NOTE: "FAIR" INDICATES FEW OR NO CLOUDS BELOW 12,000 FEET WITH NO SIGNIFICANT WEATHER AND/OR OBSTRUCTIONS TO VISIBILITY. MAZALL-220700- EASTERN MASSACHUSETTS CITY SKY/WX TMP DP RH WIND PRES REMARKS BOSTON CLOUDY 61 55 81 N24G37 30.02F 6HR MIN TEMP: 61; 6HR MAX TEMP: 67; BEVERLY LGT RAIN 59 56 89 NE14G23 30.03F FOG LAWRENCE PTCLDY 66 50 56 NE17G26 30.07F BEDFORD CLOUDY 65 48 54 NE16G29 30.03F BLUE HILL N/A 59 53 80 N22G35 30.00F NORWOOD CLOUDY 65 56 72 N13G24 30.01F MARSHFIELD CLOUDY 63 57 82 N14G29 29.97F PLYMOUTH LGT RAIN 60 55 83 N26G37 29.94F TAUNTON CLOUDY 60 55 83 N14G25 29.96F NEW BEDFORD LGT RAIN 58 56 93 N16G29 29.91F FOG $$ MAZALL-220700- CAPE COD AND THE ISLANDS CITY SKY/WX TMP DP RH WIND PRES REMARKS FALMOUTH RAIN 59 57 94 N23G36 29.90F HYANNIS LGT RAIN 60 58 92 N17G36 29.84F FOG CHATHAM LGT RAIN 61 60 97 NE22G33 29.85F FOG PROVINCETOWN CLOUDY 61 55 81 NE24G35 29.92F NANTUCKET LGT RAIN 61 61 100 N36G45 29.77F FOG MARTHAS VNYRD LGT RAIN 61 57 87 N23G43 29.84F $$ MAZALL-220700- CENTRAL AND WESTERN MASSACHUSETTS CITY SKY/WX TMP DP RH WIND PRES REMARKS WORCESTER MOCLDY 60 46 59 N14G23 30.05S 6HR MIN TEMP: 60; 6HR MAX TEMP: 63; FITCHBURG MOCLDY 65 49 56 N8 30.08S ORANGE CLOUDY 64 47 53 N12G20 30.07F SPRINGFIELD CLOUDY 65 47 51 NE12 30.04S WESTFIELD CLOUDY 62 50 64 N8 30.05F NORTH ADAMS MOCLDY 55 53 93 CALM 30.10S PITTSFIELD CLOUDY 61 46 57 NE6 30.10R $$ RIZALL-220700- RHODE ISLAND CITY SKY/WX TMP DP RH WIND PRES REMARKS PROVIDENCE LGT RAIN 63 57 81 N29G44 29.97F 6HR MIN TEMP: 63; 6HR MAX TEMP: 69; 6HR PCP: TRACE; NEWPORT CLOUDY 62 57 83 N28G41 29.92F BLOCK ISLAND LGT RAIN 64 57 78 N33G53 29.88F SMITHFIELD CLOUDY 61 54 77 NE21G28 30.00F WESTERLY LGT RAIN 67 54 63 N18G33 29.94S $$ CTZALL-220700- CONNECTICUT CITY SKY/WX TMP DP RH WIND PRES REMARKS BRADLEY INTL MOCLDY 64 49 57 N10 30.04S 6HR MIN TEMP: 64; 6HR MAX TEMP: 69; HARTFORD CLOUDY 67 49 52 N12 30.02S BRIDGEPORT CLOUDY 69 48 47 N15G21 29.99F DANBURY CLOUDY 68 48 48 N9 30.05S GROTON CLOUDY 67 51 56 N23G32 29.93F NEW HAVEN CLOUDY 68 48 48 N15 29.99F CHESTER MOCLDY 68 48 49 N14G28 29.98F MERIDEN PTCLDY 66 48 52 N12G20 30.01S WILLIMANTIC CLOUDY 67 50 54 N18G24 30.00F OXFORD CLOUDY 63 48 58 N13 30.04S $$ MEZ002-015-021-024-NHZ003-005-008-011-012-014-VTZ005-008-220700- NORTHERN NEW ENGLAND CITY SKY/WX TMP DP RH WIND PRES REMARKS PORTLAND ME MOCLDY 60 48 64 N10 30.12S 6HR MIN TEMP: 60; 6HR MAX TEMP: 66; BANGOR ME CLEAR 53 46 77 N9 30.17S CONCORD NH CLOUDY 63 48 58 N7 30.11S MANCHESTER NH CLOUDY 64 49 57 N10 30.07S NASHUA NH CLOUDY 64 50 60 N9 30.08F PORTSMOUTH NH MOCLDY 64 48 56 NE13G21 30.07S JAFFREY NH MOCLDY 60 50 69 VRB5 30.10F KEENE NH CLOUDY 62 48 60 N10 30.10S BURLINGTON VT PTCLDY 56 54 93 CALM 30.13S MT. WASHINGTON NOT AVBL $$ NYZ052-076-220700- EASTERN NEW YORK CITY SKY/WX TMP DP RH WIND PRES REMARKS ALBANY CLOUDY 62 56 80 CALM 30.10R 6HR MIN TEMP: 61; 6HR MAX TEMP: 72; NEW YORK CITY CLOUDY 71 52 50 N13 30.01R 6HR MIN TEMP: 71; 6HR MAX TEMP: 76; $$ ANZALL-220700- MARINE OBSERVATIONS STATION/POSITION TIME TEMP WIND PRES VSBY WAVE AIR SEA DIR/SP/G HT/PER (UTC) (F) (DEG/KT/KT) (MB) (MI) (FT/S) BOSTON BUOY 0450 62 60 20/ 27/ 31 1014.6 12/ 9 BUZZARDS BAY 0500 60 10/ 40/ 45 1010.7R NANTUCKET SOUND 0550 61 61 20/ 31/ 39 1008.2F 6/ 5 MASS BAY-STELLWA 0504 62 61 30/ 27 1015.2F 12/11 ISLE OF SHOALS 0500 63 30/ 26/ 30 1017.3R S OF BLOCK IS NOT AVBL $$ ......................KEY......................... SKY/WX - SKY CONDITION/PRESENT WEATHER TMP - TEMPERATURE IN FAHRENHEIT DWPT - DEWPOINT IN FAHRENHEIT RH - RELATIVE HUMIDITY IN PERCENT WIND - DIRECTION AND SPEED IN MPH PRES - MEAN SEA LEVEL PRESSURE IN INCHES OF HG WCI - WIND CHILL INDEX VSB - VISIBILITY IN MILES HX - HEAT INDEX TC - TEMPERATURE IN CELSIUS VRB - VARIABLE WIND DIRECTION N/A - NOT AVAILABLE

USA.gov is the U.S. government's official web portal to all federal, state and local government web resources and services.